DW4993 Weather Reports


Display with metric or nautical units.
time (UTC)temp
F
wind
direction
speed
MPH
gust
MPH
rain 1hr
in
rain 24hr
in
rain mn
in
humidity
%
barometer
mb
20260505124804 37 14 1.0 3.0 0.00 0.00 0.00 64 1019.7
20260505124304 37 14 1.0 3.0 0.00 0.00 0.00 65 1019.6
20260505123804 36 14 2.0 3.0 0.00 0.00 0.00 65 1019.7
20260505123305 36 68 0.0 0.0 0.00 0.00 0.00 65 1019.7
20260505122805 36 68 0.0 0.0 0.00 0.00 0.00 64 1019.6
20260505122306 36 68 0.0 0.0 0.00 0.00 0.00 64 1019.6
20260505120304 36 68 0.0 0.0 0.00 0.00 0.00 63 1019.5
20260505115306 36 68 1.0 3.0 0.00 0.00 0.00 63 1019.5
20260505114304 37 68 0.0 2.0 0.00 0.00 0.00 62 1019.4
20260505112804 37 68 1.0 3.0 0.00 0.00 0.00 62 1019.3
20260505112305 37 69 0.0 2.0 0.00 0.00 0.00 62 1019.4
20260505111804 37 69 0.0 2.0 0.00 0.00 0.00 62 1019.3
20260505111306 37 69 1.0 3.0 0.00 0.00 0.00 62 1019.3
20260505110304 37 69 0.0 2.0 0.00 0.00 0.00 61 1019.2
20260505101806 37 104 3.0 7.0 0.00 0.00 0.00 61 1019.0
20260505101304 37 97 2.0 8.0 0.00 0.00 0.00 61 1019.0
20260505100804 37 103 3.0 7.0 0.00 0.00 0.00 61 1018.8
20260505100304 38 69 3.0 8.0 0.00 0.00 0.00 61 1018.8
20260505095805 38 59 3.0 8.0 0.00 0.00 0.00 61 1018.8
20260505094804 38 95 2.0 5.0 0.00 0.00 0.00 60 1018.5
20260505094305 38 84 2.0 5.0 0.00 0.00 0.00 60 1018.5
20260505093805 38 73 3.0 5.0 0.00 0.00 0.00 60 1018.5
20260505093304 39 91 2.0 3.0 0.00 0.00 0.00 59 1018.5
20260505092805 39 100 5.0 9.0 0.00 0.00 0.00 59 1018.4
20260505092305 40 108 3.0 7.0 0.00 0.00 0.00 62 1018.4
20260505091806 40 34 3.0 7.0 0.00 0.00 0.00 63 1018.4
20260505091304 40 18 3.0 7.0 0.00 0.00 0.00 63 1018.4
20260505090805 40 40 2.0 6.0 0.00 0.00 0.00 63 1018.3
20260505090305 40 14 2.0 3.0 0.00 0.00 0.00 64 1018.3
20260505085805 40 33 3.0 7.0 0.00 0.00 0.00 64 1018.3
20260505085305 40 46 3.0 5.0 0.00 0.00 0.00 64 1018.3
20260505084804 40 27 3.0 8.0 0.00 0.00 0.00 64 1018.3
20260505084304 40 22 3.0 7.0 0.00 0.00 0.00 64 1018.3
20260505083805 40 29 3.0 7.0 0.00 0.00 0.00 64 1018.3
20260505083304 40 41 2.0 5.0 0.00 0.00 0.00 64 1018.3
20260505082805 40 42 2.0 7.0 0.00 0.00 0.00 63 1018.3
20260505081805 40 94 2.0 5.0 0.00 0.00 0.00 62 1018.3
20260505081306 40 100 1.0 3.0 0.00 0.00 0.00 61 1018.3
20260505080804 40 100 1.0 3.0 0.00 0.00 0.00 61 1018.3
20260505080305 40 100 1.0 3.0 0.00 0.00 0.00 61 1018.3
20260505075805 40 105 2.0 6.0 0.00 0.00 0.00 61 1018.3
20260505075304 40 67 2.0 5.0 0.00 0.00 0.00 61 1018.3
20260505074805 40 70 1.0 3.0 0.00 0.00 0.00 61 1018.2
20260505074304 40 51 1.0 3.0 0.00 0.00 0.00 61 1018.2
20260505073804 40 50 2.0 3.0 0.00 0.00 0.00 61 1018.1
20260505072805 40 60 2.0 5.0 0.00 0.00 0.00 61 1018.2
20260505072305 40 102 2.0 6.0 0.00 0.00 0.00 60 1018.2
20260505071804 40 83 2.0 5.0 0.00 0.00 0.00 60 1018.2
20260505071305 41 57 3.0 3.0 0.00 0.00 0.00 60 1018.1
20260505070805 41 107 2.0 6.0 0.00 0.00 0.00 60 1018.1
20260505070305 41 91 2.0 5.0 0.00 0.00 0.00 59 1017.9
20260505065804 41 85 1.0 7.0 0.00 0.00 0.00 59 1017.9
20260505065304 41 120 2.0 7.0 0.00 0.00 0.00 58 1018.0
20260505064805 41 87 2.0 3.0 0.00 0.00 0.00 57 1018.0
20260505064304 41 96 1.0 3.0 0.00 0.00 0.00 56 1017.9
20260505063805 41 106 2.0 8.0 0.00 0.00 0.00 55 1017.9
20260505063305 42 81 2.0 7.0 0.00 0.00 0.00 54 1017.9
20260505062805 42 109 2.0 7.0 0.00 0.00 0.00 52 1017.8
20260505062305 42 63 2.0 5.0 0.00 0.00 0.00 51 1017.8
20260505061804 42 116 2.0 3.0 0.00 0.00 0.00 51 1017.8
20260505061305 42 97 1.0 5.0 0.00 0.00 0.00 50 1017.8
20260505060819 42 99 2.0 5.0 0.00 0.00 0.00 49 1017.7
20260505060304 43 105 3.0 8.0 0.00 0.00 0.00 48 1017.7
20260505055804 43 100 2.0 6.0 0.00 0.00 0.00 47 1017.6
20260505054806 44 67 3.0 10.0 0.00 0.00 0.00 45 1017.5
20260505054304 44 75 5.0 10.0 0.00 0.00 0.00 43 1017.6
20260505052805 45 71 3.0 9.0 0.00 0.00 0.00 38 1017.3
20260505052304 45 80 3.0 6.0 0.00 0.00 0.00 38 1017.2
20260505051804 45 23 1.0 5.0 0.00 0.00 0.00 38 1017.2
20260505051305 45 70 3.0 5.0 0.00 0.00 0.00 37 1017.1
20260505050806 45 38 3.0 9.0 0.00 0.00 0.00 37 1017.1
20260505050304 45 50 3.0 7.0 0.00 0.00 0.00 36 1017.1
20260505041304 47 36 2.0 12.0 0.00 0.00 0.00 37 1016.3
20260505040805 47 48 3.0 8.0 0.00 0.00 0.00 35 1016.3
20260505040304 47 37 2.0 5.0 0.00 0.00 0.00 35 1016.2
20260505035304 47 82 3.0 6.0 0.00 0.00 0.00 34 1016.0
20260505034304 48 72 2.0 8.0 0.00 0.00 0.00 34 1016.0
20260505033806 48 50 2.0 7.0 0.00 0.00 0.00 34 1015.9
20260505033305 48 63 2.0 5.0 0.00 0.00 0.00 34 1015.9
20260505032805 48 37 3.0 9.0 0.00 0.00 0.00 34 1015.8
20260505032304 48 36 3.0 7.0 0.00 0.00 0.00 34 1015.8
20260505031804 49 52 3.0 9.0 0.00 0.00 0.00 34 1015.7
20260505031305 49 33 3.0 7.0 0.00 0.00 0.00 34 1015.6
20260505030805 49 29 3.0 8.0 0.00 0.00 0.00 34 1015.6
20260505030304 49 26 2.0 12.0 0.00 0.00 0.00 33 1015.5
20260505025804 49 32 3.0 12.0 0.00 0.00 0.00 33 1015.4
20260505025305 49 43 5.0 10.0 0.00 0.00 0.00 33 1015.4
20260505024304 49 38 3.0 10.0 0.00 0.00 0.00 33 1015.3
20260505023804 50 51 5.0 10.0 0.00 0.00 0.00 32 1015.2
20260505023305 50 45 4.0 10.0 0.00 0.00 0.00 32 1015.1
20260505022804 50 50 6.0 12.0 0.00 0.00 0.00 32 1015.0
20260505022304 50 46 5.0 13.0 0.00 0.00 0.00 32 1014.9
20260505021806 50 37 3.0 7.0 0.00 0.00 0.00 31 1014.9
20260505021304 51 55 4.0 12.0 0.00 0.00 0.00 31 1014.9
20260505020804 51 63 4.0 13.0 0.00 0.00 0.00 31 1014.8
20260505020304 51 38 5.0 12.0 0.00 0.00 0.00 30 1014.8
20260505015805 51 46 6.0 14.0 0.00 0.00 0.00 30 1014.7
20260505015304 51 58 6.0 12.0 0.00 0.00 0.00 30 1014.6
20260505014804 51 45 6.0 12.0 0.00 0.00 0.00 30 1014.5
20260505014304 51 47 3.0 10.0 0.00 0.00 0.00 30 1014.6
20260505013804 51 64 5.0 12.0 0.00 0.00 0.00 29 1014.6
20260505013304 52 53 5.0 10.0 0.00 0.00 0.00 29 1014.6
20260505012805 52 40 7.0 13.0 0.00 0.00 0.00 28 1014.6
20260505012304 52 52 6.0 13.0 0.00 0.00 0.00 28 1014.5
20260505011805 53 31 5.0 14.0 0.00 0.00 0.00 27 1014.4
20260505010804 53 39 4.0 12.0 0.00 0.00 0.00 28 1014.3
20260505010304 53 59 5.0 12.0 0.00 0.00 0.00 27 1014.3
20260505005806 53 58 6.0 13.0 0.00 0.00 0.00 27 1014.3
20260505004804 53 49 5.0 12.0 0.00 0.00 0.00 26 1014.4
20260505004304 53 41 5.0 12.0 0.00 0.00 0.00 26 1014.4
20260505003805 53 43 5.0 12.0 0.00 0.00 0.00 26 1014.3
20260505003304 54 42 5.0 13.0 0.00 0.00 0.00 27 1014.4
20260505002805 54 35 6.0 12.0 0.00 0.00 0.00 26 1014.3
20260505002306 54 52 6.0 10.0 0.00 0.00 0.00 26 1014.3
20260505001804 54 38 9.0 13.0 0.00 0.00 0.00 26 1014.3
20260505001305 54 45 6.0 12.0 0.00 0.00 0.00 26 1014.2
20260505000804 54 47 6.0 12.0 0.00 0.00 0.00 25 1014.2
20260505000305 54 33 6.0 16.0 0.00 0.00 0.00 25 1014.1
20260504235804 54 58 6.0 15.0 0.00 0.00 0.00 24 1014.0
20260504235305 54 38 9.0 14.0 0.00 0.00 0.00 25 1014.0
20260504234804 54 34 6.0 14.0 0.00 0.00 0.00 25 1014.1
20260504234305 54 51 5.0 14.0 0.00 0.00 0.00 25 1014.1
20260504233804 54 47 7.0 15.0 0.00 0.00 0.00 25 1014.1
20260504233304 54 33 8.0 16.0 0.00 0.00 0.00 25 1014.1
20260504232805 55 47 6.0 15.0 0.00 0.00 0.00 26 1014.1
20260504232305 55 43 5.0 12.0 0.00 0.00 0.00 25 1014.0
20260504231804 55 35 7.0 17.0 0.00 0.00 0.00 25 1014.1
20260504231304 55 33 7.0 17.0 0.00 0.00 0.00 25 1013.9
20260504230304 56 58 7.0 15.0 0.00 0.00 0.00 24 1014.0
20260504225804 56 46 9.0 20.0 0.00 0.00 0.00 26 1013.9
20260504224805 55 33 4.0 10.0 0.00 0.00 0.00 25 1014.0
20260504224304 56 36 5.0 12.0 0.00 0.00 0.00 24 1013.9
20260504223804 56 44 8.0 14.0 0.00 0.00 0.00 25 1013.9
20260504223304 56 40 7.0 15.0 0.00 0.00 0.00 25 1013.9
20260504222805 56 63 6.0 14.0 0.00 0.00 0.00 26 1013.9
20260504222305 56 17 8.0 20.0 0.00 0.00 0.00 25 1014.0
20260504221804 56 24 6.0 14.0 0.00 0.00 0.00 25 1013.9
20260504221304 56 36 8.0 17.0 0.00 0.00 0.00 24 1013.9
20260504220805 57 56 5.0 14.0 0.00 0.00 0.00 24 1013.9
20260504220304 57 32 5.0 12.0 0.00 0.00 0.00 25 1013.9
20260504215804 57 40 6.0 14.0 0.00 0.00 0.00 23 1013.9
20260504215305 56 49 8.0 17.0 0.00 0.00 0.00 24 1013.9
20260504214805 56 42 11.0 20.0 0.00 0.00 0.00 24 1013.9
20260504213804 57 42 9.0 16.0 0.00 0.00 0.00 24 1014.1
20260504212804 57 45 7.0 14.0 0.00 0.00 0.00 24 1014.0
20260504212304 57 18 7.0 14.0 0.00 0.00 0.00 25 1014.1
20260504211804 56 38 5.0 16.0 0.00 0.00 0.00 25 1014.0
20260504211305 56 32 6.0 14.0 0.00 0.00 0.00 25 1014.1
20260504210804 56 31 7.0 15.0 0.00 0.00 0.00 25 1014.1
20260504210304 56 50 10.0 16.0 0.00 0.00 0.00 23 1014.1
20260504205305 56 34 10.0 17.0 0.00 0.00 0.00 25 1014.1
20260504204804 56 35 9.0 15.0 0.00 0.00 0.00 25 1014.0
20260504204304 56 40 11.0 22.0 0.00 0.00 0.00 25 1014.2
20260504203804 56 44 8.0 20.0 0.00 0.00 0.00 24 1014.2
20260504203305 56 26 9.0 16.0 0.00 0.00 0.00 24 1014.2
20260504202804 55 39 9.0 18.0 0.00 0.00 0.00 26 1014.2
20260504202305 56 41 12.0 23.0 0.00 0.00 0.00 24 1014.2
20260504201305 55 36 7.0 16.0 0.00 0.00 0.00 28 1014.2
20260504200804 55 37 11.0 20.0 0.00 0.00 0.00 24 1014.1
20260504200305 55 32 9.0 20.0 0.00 0.00 0.00 27 1014.0
20260504195805 55 14 9.0 17.0 0.00 0.00 0.00 26 1014.1
20260504195304 55 36 8.0 16.0 0.00 0.00 0.00 26 1014.1
20260504194804 55 50 10.0 20.0 0.00 0.00 0.00 25 1014.1
20260504194305 55 43 8.0 18.0 0.00 0.00 0.00 26 1014.2
20260504193805 55 48 9.0 20.0 0.00 0.00 0.00 27 1014.1
20260504193304 55 48 9.0 17.0 0.00 0.00 0.00 27 1014.1
20260504192805 55 37 11.0 20.0 0.00 0.00 0.00 26 1014.1
20260504192305 55 25 9.0 20.0 0.00 0.00 0.00 28 1014.2
20260504191805 54 26 9.0 18.0 0.00 0.00 0.00 28 1014.2
20260504191305 54 31 12.0 21.0 0.00 0.00 0.00 26 1014.1
20260504190304 54 32 12.0 20.0 0.00 0.00 0.00 28 1014.0
20260504185804 54 46 11.0 18.0 0.00 0.00 0.00 29 1014.1
20260504184804 54 32 7.0 17.0 0.00 0.00 0.00 30 1014.1
20260504184304 53 35 7.0 16.0 0.00 0.00 0.00 29 1014.2
20260504183805 53 18 9.0 16.0 0.00 0.00 0.00 29 1014.3
20260504182805 54 38 10.0 18.0 0.00 0.00 0.00 30 1014.3
20260504182304 53 23 6.0 18.0 0.00 0.00 0.00 31 1014.3
20260504181804 53 37 6.0 21.0 0.00 0.00 0.00 30 1014.4
20260504181305 53 25 8.0 15.0 0.00 0.00 0.00 30 1014.4
20260504180804 53 5 10.0 17.0 0.00 0.00 0.00 32 1014.4
20260504180304 52 50 9.0 16.0 0.00 0.00 0.00 32 1014.3
20260504175803 52 27 9.0 18.0 0.00 0.00 0.00 32 1014.4
20260504175305 51 39 9.0 18.0 0.00 0.00 0.00 35 1014.4
20260504174804 52 50 12.0 21.0 0.00 0.00 0.00 33 1014.5
20260504174304 52 59 9.0 17.0 0.00 0.00 0.00 35 1014.5
20260504173305 51 23 10.0 17.0 0.00 0.00 0.00 38 1014.4
20260504172804 51 44 6.0 17.0 0.00 0.00 0.00 38 1014.4
20260504172305 51 21 9.0 16.0 0.00 0.00 0.00 38 1014.4
20260504171804 50 35 6.0 15.0 0.00 0.00 0.00 42 1014.4
20260504171305 49 41 9.0 15.0 0.00 0.00 0.00 41 1014.4
20260504170804 49 15 8.0 18.0 0.00 0.00 0.00 42 1014.4
20260504170304 48 16 9.0 18.0 0.00 0.00 0.00 42 1014.4
20260504160304 47 15 8.0 16.0 0.00 0.00 0.00 48 1014.3
20260504150805 44 9 5.0 10.0 0.00 0.00 0.00 54 1014.1
20260504150306 44 29 3.0 9.0 0.00 0.00 0.00 54 1014.1
20260504141305 41 358 3.0 6.0 0.00 0.00 0.00 60 1013.8
20260504140805 41 30 3.0 7.0 0.00 0.00 0.00 60 1013.8
20260504130806 39 0 3.0 6.0 0.00 0.00 0.00 65 1013.4
20260504130305 39 10 2.0 3.0 0.00 0.00 0.00 66 1013.3